Terminal Aerodrome Forecast
Issued by NWS

Home | Current Version | Previous Version | Text Only | Print | Product List | Glossary On
Versions: 1 2 3 4 5 6 7 8 9 10 11 12 13 14 15 16 17 18 19 20 21 22 23 24 25
000
FTUS46 KOTX 211139
TAFPUW
TAF
KPUW 211139Z 2112/2212 00000KT P6SM OVC100
     FM211800 27006KT P6SM FEW070 FEW200
     FM220700 10003KT P6SM VCSH SCT060 SCT200=

USA.gov is the U.S. government's official web portal to all federal, state and local government web resources and services.